Location: Unnamed
(48.3966°N, 15.7007°E)
Time: 03:44:57
(UTC+02:00)

ISS - Visible Passes

Search period start: 06 May 2021 00:00
Search period end: 16 May 2021 00:00
Orbit: 418 x 421 km, 51.6° (Epoch: 05 May)

Date Brightness Start Highest point End Pass type
(mag) Time Alt. Az. Time Alt. Az. Time Alt. Az.
06 May -3.8 02:48:19 77° E 02:48:19 77° E 02:51:33 10° ENE visible
06 May -2.8 04:21:51 10° W 04:25:08 47° N 04:28:26 10° ENE visible
07 May -2.0 02:02:24 26° E 02:02:24 26° E 02:04:05 10° ENE visible
07 May -3.0 03:35:20 18° W 03:37:38 51° N 03:40:58 10° ENE visible
08 May -0.8 01:16:27 11° ENE 01:16:27 11° ENE 01:16:34 10° ENE visible
08 May -3.3 02:49:24 45° WNW 02:50:08 59° NNW 02:53:30 10° ENE visible
08 May -2.8 04:23:58 10° WNW 04:27:15 48° N 04:30:34 10° E visible
09 May -3.0 02:03:25 50° NE 02:03:25 50° NE 02:06:03 10° ENE visible
09 May -2.7 03:36:28 10° WNW 03:39:44 46° N 03:43:01 10° ENE visible
10 May -1.5 01:17:25 20° ENE 01:17:25 20° ENE 01:18:37 10° ENE visible
10 May -2.8 02:50:22 22° WNW 02:52:13 47° N 02:55:30 10° ENE visible
10 May -3.3 04:25:57 10° WNW 04:29:20 66° NNE 04:32:42 10° E visible
11 May -3.0 02:04:19 48° NW 02:04:41 51° N 02:08:00 10° ENE visible
11 May -3.0 03:38:29 10° WNW 03:41:50 55° NNE 03:45:10 10° E visible
12 May -2.5 01:18:13 38° NE 01:18:13 38° NE 01:20:32 10° ENE visible
12 May -2.8 02:51:09 11° WNW 02:54:18 48° N 02:57:36 10° E visible
12 May -3.8 04:27:53 10° WNW 04:31:15 71° SSW 04:34:37 10° ESE visible
13 May -1.5 00:32:03 18° ENE 00:32:03 18° ENE 00:33:05 10° ENE visible
13 May -2.7 02:04:58 23° WNW 02:06:47 46° N 02:10:03 10° ENE visible
13 May -3.7 03:40:25 10° WNW 03:43:49 85° NNE 03:47:12 10° ESE visible
14 May -2.7 01:18:34 40° NW 01:19:14 47° N 01:22:31 10° ENE visible
14 May -3.4 02:52:58 10° WNW 02:56:20 66° NNE 02:59:43 10° E visible
14 May -3.0 04:29:57 10° W 04:33:01 32° SW 04:36:05 10° SSE visible
14 May -1.8 21:17:14 10° SSE 21:18:34 12° SE 21:19:54 10° ESE visible
14 May -3.8 22:51:29 10° SW 22:54:48 59° SSE 22:58:08 10° ENE visible
15 May -2.9 00:28:23 10° W 00:31:42 51° N 00:35:01 10° ENE visible
15 May -3.1 02:05:30 10° WNW 02:08:49 55° N 02:12:10 10° E visible
15 May -3.6 03:42:23 10° WNW 03:45:39 48° SSW 03:48:55 10° SE visible
15 May -3.4 22:04:14 10° SW 22:07:25 40° SSE 22:10:37 10° ENE visible
15 May -3.2 23:40:50 10° W 23:44:11 59° NNW 23:47:32 10° ENE visible
